Airport Information

KOTH - Southwest Oregon Regional Airport

KOTH 251056Z AUTO 00000KT 10SM OVC095 08/06 A2994 RMK AO2 SLP137 T00780061


  • General Information

  • Coordinates: N 43°25'1"/ W 124°14'45"
  • Location: N/A
  • Surveyed Elevation: 17 MSL

Operations

Flow Name Active Runways Conditions

Green background denotes normal operations.


Common Frequencies

Callsign Frequency Position Name

More at the Document Center


Charts